Regional Weather Roundup
Issued by NWS Newport/Morehead, NC

Current Version | Previous Version | Graphics & Text | Print | Product List | Glossary Off
Versions: 1 2 3 4 5 6 7 8 9 10 11 12 13 14 15 16 17 18 19 20 21 22 23 24 25 26 27 28 29 30 31 32 33 34 35 36 37 38 39 40 41 42 43 44 45 46 47 48 49 50

000
ASUS42 KMHX 262012
RWRMHX
WEATHER ROUNDUP FOR EASTERN NORTH CAROLINA
NATIONAL WEATHER SERVICE NEWPORT/MOREHEAD CITY NC
400 PM EDT SUN APR 26 2015

NOTE: "FAIR" INDICATES FEW OR NO CLOUDS BELOW 12,000 FEET
WITH NO SIGNIFICANT WEATHER AND/OR OBSTRUCTIONS TO VISIBILITY

NCZ015>017-031-032-045>047-102-103-262100-
NORTH COAST

CITY           SKY/WX    TMP DP  RH WIND       PRES   REMARKS
EDENTON        CLOUDY    53  47  78 NE9       29.69S
ELIZABETH CITY CLOUDY    55  45  68 N12       29.69S
KITTY HAWK     CLOUDY    51  41  69 N8G20     29.66S
MANTEO         CLOUDY    52  42  67 N16G24    29.67S

$$

NCZ045>047-081-094-103-104-262100-
CENTRAL COAST

CITY           SKY/WX    TMP DP  RH WIND       PRES   REMARKS
FRISCO         CLOUDY    50  47  89 N10G21    29.65R
SWANQUARTER      N/A     55 N/A N/A VRB5G13   29.62S

$$

NCZ095-097-098-100-101-262100-
SOUTHERN COAST

CITY           SKY/WX    TMP DP  RH WIND       PRES   REMARKS
BEAUFORT       CLOUDY    55  50  83 N13       29.66S
CEDAR ISLAND     N/A     55 N/A N/A NW17G23   29.71S
JACKSONVILLE   CLOUDY    57  49  74 NW12      29.66F
PINEY ISLAND   CLOUDY   N/A N/A N/A N17       29.66S
WILMINGTON     PTSUNNY   63  53  70 N10       29.66S


$$

NCZ011>013-027>030-043-044-078>080-089-090>093-098-262100-
COASTAL PLAIN

CITY           SKY/WX    TMP DP  RH WIND       PRES   REMARKS
AHOSKIE        CLOUDY    51  44  76 N5        29.71S
CLINTON        CLOUDY    54  50  86 N6        29.70S
ELIZABETHTOWN  CLOUDY    57  50  78 N5        29.68F
GOLDSBORO      CLOUDY    53  49  85 N7        29.68F
GREENVILLE     CLOUDY    54  48  82 N8        29.73F
HAVELOCK       CLOUDY    55  48  77 N14       29.68S
KENANSVILLE    CLOUDY    54  48  80 N7        29.70S
KINSTON        CLOUDY    54  48  82 N9        29.70F
NEW BERN       CLOUDY    54  48  80 N10       29.69F
RICHLANDS      CLOUDY    55  46  71 NW9       29.68S
ROCKY MOUNT    CLOUDY    53  47  79 N9        29.71F
WASHINGTON     CLOUDY    52  47  84 N12       29.70R
WHITEVILLE     CLOUDY    60  52  73 N8        29.65F

$$

AMZ130-135-150-152-154-156-158-170-250-252-270-ANZ085-086-088-633-658-670-262100-
MARINE OBSERVATIONS

STATION/POSITION TIME  TEMP    WIND        PRES    WAVE   SWELL
                       AIR SEA DIR/SP/G            HT/PER HT/PER
                 (UTC) (F)     (DEG/KT/KT) (MB)    (FT/S) (FT/S)
CHESAPEAKE LIGHT 2000   51     360/  9/ 10 1005.8
64 E VA BEACH    1950   53 57   10/ 19/ 21 1003.2    6/ 6
DUCK             1900   50 54   10/ 19/ 21 1003.6
2 E DUCK         1911      54                N/A     5/ 6
10 NE DUCK       NOT AVBL
OREGON INLET     1900   50 54  350/ 15/ 21 1004.0
HATTERAS CG      1900   54 63  360/ 23/ 28 1002.9
DIAMOND BUOY     1950   56 76  360/ 23/ 29 1002.6    7/ 7
CAPE LOOKOUT     2000   54     350/ 15/ 17 1003.8
BEAUFORT LAB     1900   54 62  360/ 13/ 15 1003.4
27 SE WRIGHTSVLE 1900   57 72   10/ 14/ 17   N/A
5 SE WRIGHTSVLE  1908   59 65   20/ 10/ 14 1004.1
225 S CAPE HAT   1950   72 71  270/ 14/ 16 1001.9    7/ 8   5/ 8
41 SE CHARLESTON 1950   73 72  240/ 17/ 19 1001.7    5/ 5   2/13

$$



USA.gov is the U.S. government's official web portal to all federal, state and local government web resources and services.